THOR ABLESTAR DEB, 402

Orbit data source: Space-Track

THOR ABLESTAR DEB, 402 is space debris in LEO originally from a launch on Thu, 29 Jun 1961 UTC launched from the Air Force Eastern Test Range (AFETR). Debris objects in space refer to the collection of defunct objects orbiting the Earth. Examples of debris include non-operational satellites, rocket bodies, and fragments generated from explosions, collisions, or faulty payload assembly.

Loading next visibility...
Identifier
402, 1961-015EB
Orbit
LEO
Country
Flag of USUS
Related business
Manufacturer
Unknown
Mission
Spacecraft
Bus & Motor
Unknown
Mass
Unknown
Launch date (UTC)
1961-06-29 (64 years ago)
Launch vehicle
Unknown
Launch site
Air Force Eastern Test Range (AFETR)
Object type
Payload
Rocket body
Debris
Shape & HBR
Unknown shape, 0.1 m
Radar Cross Section
Small (<0.1 m²)

Expand to show TLE details & history
Last TLE update: 21 hours ago

TLE from 21 hours ago
0 THOR ABLESTAR DEB
1 00402U 61015EB  25346.30177414  .00014697  00000-0  24850-2 0  9994
2 00402  66.6538  35.1340 0018879  96.8938 263.4328 14.69393629313720
Epoch: 2025-12-12T07:14Z
TLE epoch observation values (Epoch: 2025-12-12T07:14:33.285Z)
Latitude
-0.00006°
Longitude
-154.75007°
Altitude
666.692 km
Speed
7.523 km/s
True Right ascension
02h 20m 32s
True Declination
0° 00' 00"
Sunlit
Object was in full shadow at epoch
Visualization orbit readout
Latitude
Unknown
Longitude
Unknown
Altitude
Unknown
Speed
Unknown
Apparent Right ascension
Unknown
Apparent Declination
Unknown
Sunlit
N/A
Visualization observer readout
Local Sidereal Time
03:11:27
Azimuth
Unknown
Elevation
Unknown
Doppler factor
Unknown
Orbital elements
Apogee altitude
674.645 km
Perigee altitude
648.065 km
Semi-major axis
7,039.492 km
Eccentricity
0.00189
Inclination
66.6538°
RAAN
35.134°
Arg. of periapsis
96.8938°
True anomaly
263.21794°
Mean anomaly
263.4328°
Eccentric anomaly
263.32536°
Mean motion
3.67478 °/min
Orbital period
97.97 mins
BSTAR
0.002485
Loading maneuver chart data...
Computing Atmospheric mass density...

Documentation

Showing up to 5 results
|